Tracking 30986 objects as of 9-Jul-2025
HD Live streaming from Space Station
objects crossing your sky now

INTELSAT 901

Track INTELSAT 901 now!
INTELSAT 901 is classified as:


NORAD ID: 26824
Int'l Code: 2001-024A
Perigee: 36,180.5 km
Apogee: 36,229.6 km
Inclination: 0.4 °
Period: 1,457.2 minutes
Semi major axis: 42576 km
RCS: 15.9919 m2 (large)
Launch date: June 9, 2001
Source: International Telecommunications Satellite Organization (ITSO)
Launch site: FRENCH GUIANA (FRGUI)

INTELSAT 901 is a 4.7 ton (with fuel) geosynchronous communications spacecraft providing voice and video services to Europe and the Americas through 44 C-band and 12 Ku-band transponders.
Your satellite tracking list
Your tracking list is empty




NASA's NSSDC Master Catalog

Two Line Element Set (TLE):
1 26824U 01024A   25189.70488889 -.00000177  00000-0  00000-0 0  9992
2 26824   0.3550  91.2253 0005766  29.0441 236.4256  0.98822306 19526
Source of the keplerian elements: AFSPC